РПИ Баку

Район полетной информации Баку (UBBA) обеспечивает организацию воздушного движения в воздушном пространстве Азербайджана в сети VATSIM.

В состав РПИ входит пять международных аэропортов, четыре аэропорта совместного базирования, и четыре военных аэропорта.

Первого апреля 1996 года по решению дирекции Государственного концерна ГА под эгидой ICAO и Европейского банка развития создано предприятие аэронавигационного обслуживания  «Азераэронавигация» (AZANS) получившее статус юридической самостоятельности первым из структурных подразделений Государственного Концерна «Азербайджан Хава Йоллары». Абсолютной  задачей нового предприятия стало обеспечение безопасности полетов в воздушном пространстве Азербайджанской Республики с возложением функции обслуживания и координации воздушного движения.

С целью готовности к обслуживанию постоянно растущего потока воздушного движения на должном уровне и в соответствии с международными требованиями и стандартами был разработан широкоформатный проект нового здания Управления Воздушного Движения «Азераэронавигация» и Главного Центра ЕС УВД, и в 2012 году начато сооружение комплекса с Вышкой высотой 65 метров. В новом Центре будут применены современные технологии и достижения технического развития с прогнозом на будущее, такие как автоматизированные системы УВД производителя из Испании «ИНДРА», OLDİ, Searidge camera Surveillance Technologies AMHS,  ADS-B, A-SMGCS и т.д.

Baku Control (UBBA_CTR) sectors

United 125.500

Руководство

Grigori Badalov*

Куратор

Gregory Adamov

Помощник куратора по мероприятиям
Инструкторы РПИ
Grigori Badalov (Instructor)
Входит в состав
Кавказ

Диспетчеры РПИ

Диспетчер Рейтинг Допуски *
Wesley Wong Controller UBBA_CTR
Anatoly Zhilkin Controller UBBA_CTR
Grigori Badalov Instructor UBBA_CTR
Ivan Chernov Senior Controller UBBA_CTR
Valeriy Polostyanoy Instructor UBBA_CTR

Аэропорты РПИ

ICAO Город Название Погода
UBBB Баку Баку UBBB 240800Z 20006KT CAVOK 27/02 Q1020 NOSIG
UBBQ Габала Габала UBBQ 240800Z VRB02KT 9999 BKN200 22/08 Q1022 NOSIG RMK MT OBSC
UBBG Гянджа Гянджа UBBG 240800Z 33008KT 290V040 9999 BKN100 21/10 Q1021 NOSIG
UBBN Нахичевань Нахичевань UBBN 240800Z 13006KT 9999 FEW046 SCT100 22/06 Q1020 NOSIG RMK QFE690
UBBL Ленкорань Ленкорань UBBL 240800Z 14011KT 9999 NSC 24/07 Q1021 NOSIG